Rushville, IL

6:47 AM CDT on August 28, 2014 (GMT -0500)
Rushville (Inner City) | Change Station
CLOSE
Current Station
Personal Weather Station
Location: Rushville, IL
Elevation: 666 ft
Nearby Weather Stations

Elev 666 ft 40.12 °N, 90.57 °W | Updated 36 seconds ago

Mostly Cloudy
Mostly Cloudy
69.6 °F
Feels Like 69.6 °F
N
0.0
Wind Variable Wind from ESE
Gusts 3.0 mph

Today
High -- | Low -- °F
--% Chance of Precip.
Yesterday
High -- | Low -- °F
Precip. -- in
6:26 AM 7:40 PM
Waxing Crescent, 8% visible
Pressure 30.09 in
Visibility 10.0 miles
Clouds Scattered Clouds 2200 ft
Mostly Cloudy 5000 ft
Dew Point 67 °F
Humidity 90%
Rainfall 0.00 in
Snow Depth Not available.
UV 0 out of 12
Pollen 9.70 out of 12
Air Quality Not available.
Flu Activity Not available.
METAR KMQB 281135Z AUTO 10004KT 10SM SCT022 BKN050 20/17 A3009 RMK AO2 LTG DSNT W T01950168

More Conditions Fewer Conditions

Pressure 30.09 in
Visibility 10.0 miles
Clouds Scattered Clouds 2200 ft
Mostly Cloudy 5000 ft
Dew Point 67 °F
Humidity 90%
Rainfall 0.00 in
Snow Depth Not available.
UV 0 out of 12
Pollen 9.70 out of 12
Air Quality Not available.
Flu Activity Not available.
METAR KMQB 281135Z AUTO 10004KT 10SM SCT022 BKN050 20/17 A3009 RMK AO2 LTG DSNT W T01950168

More Conditions Fewer Conditions

10-Day Weather Forecast

Almanac

Astronomy

Aug. 28, 2014 Rise Set
Actual Time 6:26 AM CDT 7:40 PM CDT
Civil Twilight 5:58 AM CDT 8:08 PM CDT
Nautical Twilight 5:24 AM CDT 8:41 PM CDT
Astronomical Twilight 4:49 AM CDT 9:16 PM CDT
Moon 9:18 AM CDT 9:03 PM CDT
Length of Visible Light 14h 10m
Length of Day
13h 13m
Tomorrow will be 2m 31s shorter.
Waxing Crescent, 8% of the Moon is Illuminated
Today
Waxing Crescent
Sep 2
First Quarter
Sep 8
Full
Sep 15
Last Quarter
Sep 24
New

Today's Extremes

State Highs State Lows

Community

WunderPhotos

Upload Photos

1,747,929 photos uploaded!

Nearby

Snow Depth

Station Depth Elevation
No new snow has been reported.

Earthquake Activity

City Distance Mag. Time & Date
No recent earthquake activity has been reported nearby.
Minimum magnitude displayed is 2.5.

Coastal Water Temperatures

Place Temperature
No Stations Reporting

Nearby Weather Stations